{"data":{"norad_id":47873,"intl_designator":"2021-021P","name":"STARLINK-2329","alt_names":[],"object_type":"PAYLOAD","status":"ACTIVE","operator":null,"country":"US","launch_date":"2021-03-14","launch_site_code":"AFETR","launch_vehicle":null,"mission":null,"orbit_class":"UNKNOWN","rcs_meters":null,"size_class":null,"mass_kg":null,"dimensions":null,"purposes":["comms"],"wikipedia_slug":null,"has_3d_model":false,"image_url":null,"decayed_at":null,"tle_current":{"epoch":"2026-05-25T00:42:30.351744Z","epoch_age_seconds":69809,"freshness":"FRESH","line1":"1 47873U 21021P   26145.02951796 -.00001049  00000+0 -22040-4 0  9999","line2":"2 47873  53.1578 260.3637 0001844  79.5794 280.5415 15.31697140288117","mean_motion":15.3169714,"eccentricity":0.0001844,"inclination_deg":53.1578,"raan_deg":260.3637,"arg_perigee_deg":79.5794,"mean_anomaly_deg":280.5415,"bstar":-2.204e-5,"rev_number":28811,"period_min":94.01336350344,"perigee_km":469.48558626007,"apogee_km":472.01145524012,"semimajor_km":6848.8855207501,"source":"CELESTRAK","updated_at":"2026-05-25T13:38:16.610241Z"}}}